Jacksonville Weather Center

Moon Phase Calendar



Online Cameras

 


      

Current Conditions in Jacksonville Beach
8/19/2022 5:03:08 PM

83°F
Feels Like 93
Clouds
Humidity
84%
Pressure
29.88"
Wind
5.8 mph (ESE)
Dew Point
78°F
UV Index
2/10 (Low)
Visibility
6 mi

Hourly Forecast

Date & Time Fri, Aug 19
5:00 PM
Fri, Aug 19
6:00 PM
Fri, Aug 19
7:00 PM
Fri, Aug 19
8:00 PM
Fri, Aug 19
9:00 PM
Fri, Aug 19
10:00 PM
Fri, Aug 19
11:00 PM
Sat, Aug 20
12:00 AM
Sat, Aug 20
1:00 AM
Sat, Aug 20
2:00 AM
Sat, Aug 20
3:00 AM
Sat, Aug 20
4:00 AM
Sat, Aug 20
5:00 AM
Sat, Aug 20
6:00 AM
Sat, Aug 20
7:00 AM
Sat, Aug 20
8:00 AM
Sat, Aug 20
9:00 AM
Sat, Aug 20
10:00 AM
Sat, Aug 20
11:00 AM
Sat, Aug 20
12:00 PM
Sat, Aug 20
1:00 PM
Sat, Aug 20
2:00 PM
Sat, Aug 20
3:00 PM
Sat, Aug 20
4:00 PM
Sat, Aug 20
5:00 PM
Sat, Aug 20
6:00 PM
Sat, Aug 20
7:00 PM
Sat, Aug 20
8:00 PM
Sat, Aug 20
9:00 PM
Sat, Aug 20
10:00 PM
Sat, Aug 20
11:00 PM
Sun, Aug 21
12:00 AM
Sun, Aug 21
1:00 AM
Sun, Aug 21
2:00 AM
Sun, Aug 21
3:00 AM
Sun, Aug 21
4:00 AM
Sun, Aug 21
5:00 AM
Sun, Aug 21
6:00 AM
Sun, Aug 21
7:00 AM
Sun, Aug 21
8:00 AM
Sun, Aug 21
9:00 AM
Sun, Aug 21
10:00 AM
Sun, Aug 21
11:00 AM
Sun, Aug 21
12:00 PM
Sun, Aug 21
1:00 PM
Sun, Aug 21
2:00 PM
Sun, Aug 21
3:00 PM
Sun, Aug 21
4:00 PM
Condition
Clouds

Clouds

Clouds

Rain

Rain

Rain

Rain

Rain

Rain

Clouds

Clouds

Clouds

Clouds

Rain

Rain

Rain

Clouds

Clouds

Clouds

Rain

Rain

Clouds

Clouds

Clouds

Clouds

Clouds

Clouds

Rain

Clouds

Rain

Clouds

Clouds

Clouds

Clouds

Clouds

Clouds

Clouds

Clouds

Clouds

Rain

Clouds

Clouds

Clouds

Clouds

Clouds

Clouds

Clouds

Clouds
Temperature 83°F83°F84°F82°F80°F77°F77°F77°F77°F78°F78°F78°F78°F78°F78°F79°F81°F84°F87°F89°F91°F91°F87°F86°F87°F86°F86°F84°F83°F83°F82°F81°F80°F80°F79°F79°F79°F79°F78°F79°F81°F84°F86°F88°F90°F90°F90°F89°F
Feels Like 93°F92°F92°F88°F80°F78°F78°F78°F79°F79°F79°F80°F80°F80°F80°F79°F86°F91°F94°F97°F98°F99°F93°F93°F95°F94°F94°F92°F91°F90°F88°F86°F84°F80°F79°F79°F79°F79°F79°F79°F85°F88°F91°F94°F96°F97°F98°F97°F
Cloudiness 75%75%77%79%95%100%100%100%100%100%72%65%70%72%67%64%39%37%35%29%25%30%66%64%62%58%57%54%31%36%39%34%30%31%19%15%19%16%16%25%78%89%93%93%94%95%75%68%
Visibility 6 mi6 mi6 mi6 mi6 mi6 mi6 mi6 mi6 mi6 mi6 mi6 mi6 mi6 mi6 mi6 mi6 mi6 mi6 mi6 mi6 mi6 mi6 mi6 mi6 mi6 mi6 mi6 mi6 mi6 mi6 mi6 mi6 mi6 mi6 mi6 mi6 mi6 mi6 mi6 mi6 mi6 mi6 mi6 mi6 mi6 mi6 mi6 mi
Precipitation 13%30%66%89%100%100%100%100%100%80%0%0%0%37%24%26%36%36%36%40%37%41%28%20%5%3%1%21%40%80%81%81%77%73%13%20%20%22%22%25%20%20%20%20%11%3%0%0%
Humidity 84%81%78%81%84%84%86%89%89%87%87%87%87%86%87%85%79%71%63%58%55%54%63%67%64%67%69%74%78%77%76%77%77%78%78%76%72%70%72%73%69%64%59%56%54%55%56%60%
Dew Point 78°F77°F76°F75°F74°F72°F72°F73°F74°F74°F74°F74°F74°F74°F73°F74°F74°F73°F72°F72°F71°F71°F72°F73°F73°F74°F74°F75°F75°F75°F74°F73°F72°F72°F72°F71°F69°F68°F68°F69°F70°F70°F70°F69°F70°F70°F71°F72°F
Pressure 29.88"29.91"29.91"29.94"30"30.06"30.06"30.06"30.06"30.03"30.03"30.03"30.03"30.06"30.06"30.09"30.12"30.12"30.12"30.12"30.12"30.09"30.09"30.06"30.06"30.06"30.06"30.06"30.06"30.09"30.09"30.09"30.09"30.06"30.06"30.06"30.06"30.06"30.06"30.09"30.09"30.09"30.12"30.09"30.06"30.06"30.03"30"
Wind Speed 11.1 mph10.8 mph9.8 mph7.1 mph7.4 mph7.5 mph5.6 mph8.6 mph10.1 mph6.5 mph5.4 mph5.1 mph3.8 mph2.8 mph2.8 mph3.2 mph3.2 mph2 mph1 mph0.8 mph3.2 mph6.8 mph10.1 mph9 mph9.4 mph9.5 mph9.2 mph10.1 mph8.8 mph12.8 mph8.2 mph6.4 mph4.8 mph5.2 mph4.5 mph4.9 mph4.9 mph5.4 mph5.6 mph5.1 mph5 mph5.2 mph5.2 mph6.2 mph7.3 mph9.2 mph11.4 mph13.6 mph
Wind
Direction
123°
ESE
130°
SE
144°
SE
214°
SW
250°
WSW
305°
NW
25°
NNE
69°
ENE
84°
E
107°
ESE
148°
SSE
171°
S
187°
S
196°
SSW
235°
SW
261°
W
278°
W
293°
WNW
319°
NW
18°
NNE
65°
ENE
73°
ENE
79°
E
89°
E
99°
E
102°
ESE
111°
ESE
137°
SE
143°
SE
162°
SSE
177°
S
216°
SW
217°
SW
194°
SSW
207°
SSW
196°
SSW
206°
SSW
191°
S
199°
SSW
200°
SSW
206°
SSW
197°
SSW
175°
S
157°
SSE
140°
SE
130°
SE
126°
SE
126°
SE

Daily Forecast

Date High Low Precip. Humidity
Today
Aug 19

Rain
88 °F
75 °F
100%
62%
Saturday
Aug 20

Rain
91 °F
77 °F
100%
55%
Sunday
Aug 21

Rain
90 °F
78 °F
95%
55%
Monday
Aug 22

Rain
91 °F
76 °F
95%
55%
Tuesday
Aug 23

Rain
86 °F
77 °F
75%
61%
Wednesday
Aug 24

Rain
85 °F
78 °F
96%
63%
Thursday
Aug 25

Rain
85 °F
78 °F
100%
65%
Friday
Aug 26

Rain
86 °F
80 °F
100%
63%
Saturday
Aug 27

Rain
82 °F
79 °F
100%
84%
Sunday
Aug 28

Rain
83 °F
77 °F
100%
77%
Monday
Aug 29

Rain
89 °F
79 °F
100%
62%
Tuesday
Aug 30

Rain
90 °F
79 °F
67%
58%
Wednesday
Aug 31

Rain
90 °F
79 °F
61%
56%
Thursday
Sep 1

Clouds
92 °F
82 °F
28%
51%
Friday
Sep 2

Rain
87 °F
81 °F
57%
64%
Saturday
Sep 3

Rain
82 °F
78 °F
88%
73%

Temperature 8-14 Day Outlook



Precipitation 8-14 Day Outlook




Quick Links
Jacksonville News
Jacksonville Photos
Jacksonville Videos




About Us
Contact Us
Site Map
Search Site
Advertise With Us
   
Jacksonville.USCoast.info
THE JACKSONVILLE WEBSITE

Copyright 2022, Coastal Town
Privacy    |    Legal